Voltar ao catálogo

ARIANE 44L+ DEB

AtivoGTO
NORAD 29026·DEBRIS·🇫🇷 France

Lançado Apr 15, 1992 de Guiana Space Centre

Loading…

TLE

ObsoletoSource: Space-Track

Época: Sep 14, 2026, 04:26 UTC

1 29026U 92021S   26257.18503057 -.00000166  00000-0  00000-0 0  9998
2 29026   3.6061 103.5844 6949965 268.8404 314.6881  2.23815084109860

Acompanhe ARIANE 44L+ DEB em tempo real com AllMySat

Download on the App Store